Wind_Speed
18 18 18 18 19 19 20 20 21 21 21 21 20 19 19 18 18 19 18 17 18 18 17 17 17 17 18 19 20 19 19 20 20 20 19 19 19 19 19 20 20 20 21 21
19 18 19 19 19 19 19 20 20 20 20 20 18 18 18 18 18 18 17 17 17 16 16 17 17 16 16 17 17 18 18 18 18 17 17 17 18 18 19 19 20 20 20 20
19 19 19 20 20 20 20 19 19 19 19 18 17 17 18 17 17 16 16 15 15 14 14 15 14 14 15 16 16 16 17 17 17 16 16 16 17 18 19 19 19 19 19 19
19 19 19 19 19 19 19 19 19 18 17 17 16 16 17 16 15 14 13 13 13 13 13 13 13 13 14 15 15 15 16 16 15 16 16 16 17 17 18 19 19 18 18 17
19 19 19 19 19 18 18 18 18 17 17 16 15 15 15 14 14 13 12 11 11 11 11 11 11 11 12 13 14 15 15 15 15 15 15 15 17 17 18 19 18 18 17 17
19 18 18 19 18 18 18 17 17 17 16 15 14 14 13 13 13 12 12 10 10 10 9 10 10 10 11 12 13 13 14 15 15 15 15 16 16 17 17 18 17 17 17 17
19 19 19 20 18 18 17 16 16 15 14 13 13 13 13 13 12 10 10 10 10 9 8 9 9 10 10 11 12 13 14 14 14 14 14 15 15 16 17 17 17 17 17 18
19 18 18 18 18 17 16 15 15 14 14 13 12 12 11 11 10 9 8 8 8 7 8 8 9 9 10 10 11 12 13 13 13 13 14 15 15 16 17 17 18 18 18 18
18 17 17 17 17 16 15 14 13 13 12 12 11 10 9 9 8 7 7 7 7 6 7 8 8 8 9 10 11 12 12 12 13 14 14 15 16 16 17 18 18 19 19 19
18 17 16 16 16 15 13 12 12 11 10 9 9 8 8 7 7 6 5 5 5 6 6 6 7 8 9 9 10 11 11 12 12 13 14 15 16 17 17 18 18 19 19 19
18 17 16 15 14 13 12 11 11 10 8 8 8 7 6 5 5 4 4 4 4 5 6 6 7 7 8 10 10 11 11 13 14 15 15 16 16 17 17 18 18 18 19 20
18 17 15 14 13 12 11 11 11 10 9 8 7 6 5 4 4 4 4 3 4 4 5 6 7 8 8 9 10 11 12 13 14 15 15 16 17 17 17 18 19 19 20 21
17 16 15 13 13 12 11 10 10 9 9 7 7 6 5 4 4 4 3 3 4 4 5 6 6 8 9 10 11 11 12 13 14 14 15 16 17 18 18 19 20 21 21 22
16 15 14 13 12 12 11 10 10 9 9 8 7 7 6 5 5 4 4 4 4 5 5 6 7 8 9 10 10 11 13 14 14 15 16 17 17 18 19 20 21 22 22 23
16 15 14 12 12 12 11 10 9 8 8 7 7 7 6 6 5 5 5 4 4 5 5 5 6 7 8 9 10 12 13 14 15 16 16 17 18 19 20 20 21 22 23 24
16 15 14 12 12 11 10 10 9 8 7 7 6 6 6 6 5 5 5 4 4 4 4 4 6 7 8 9 11 12 13 15 15 16 17 17 18 19 20 21 22 23 23 24
16 14 13 11 11 11 10 10 9 8 8 7 7 6 6 5 5 5 5 5 4 3 3 4 5 7 8 9 11 12 14 15 16 16 17 18 19 20 21 22 23 23 24 24
15 14 13 12 11 10 10 10 9 9 8 7 6 5 5 5 5 5 5 5 4 3 3 4 5 7 8 10 11 13 14 16 17 17 18 19 20 21 22 23 23 24 24 25
16 14 13 12 11 10 10 10 9 9 8 7 7 6 5 5 5 5 5 4 3 2 3 4 5 7 8 10 11 13 14 16 17 18 19 20 21 22 23 23 24 24 25 26
15 14 13 12 12 11 10 10 9 9 8 7 7 6 5 5 6 5 4 4 3 2 3 4 5 6 8 10 11 13 14 16 17 19 20 21 22 23 24 24 25 25 26 27
15 15 14 13 12 12 11 11 10 9 8 8 7 6 6 6 6 5 5 3 3 2 3 4 5 6 8 10 11 13 15 16 18 19 20 21 23 23 24 24 25 25 27 28
16 15 14 14 13 13 12 12 11 10 9 8 7 7 7 6 6 5 5 3 3 3 3 4 5 6 8 10 11 13 15 16 18 19 21 22 23 24 24 25 26 27 28 29
17 15 14 14 14 13 13 13 12 11 10 9 8 8 7 6 6 5 5 3 3 3 3 4 5 7 8 10 12 13 15 16 18 20 22 23 23 24 25 26 27 28 29 30
17 16 15 15 14 14 14 14 13 12 11 10 9 8 8 7 7 6 5 4 3 3 3 4 5 7 9 10 12 13 15 16 18 20 22 23 23 24 25 27 28 29 30 30
17 17 16 15 16 16 15 15 14 13 12 11 11 10 9 8 8 7 5 4 3 3 3 4 6 7 9 11 12 13 15 16 18 20 22 22 23 24 26 27 29 30 31 31
17 17 17 17 17 17 16 15 14 14 13 13 12 11 10 10 8 7 5 4 4 3 4 5 6 8 9 11 12 13 15 17 19 20 22 23 24 25 27 28 30 31 31 32
19 18 18 18 18 18 17 16 15 14 14 14 13 12 12 11 9 8 6 5 4 4 5 6 7 8 9 11 13 14 16 18 19 20 22 23 25 26 28 29 30 30 31 33
Wind_Direction
300 300 300 300 298 297 297 298 297 298 298 300 299 301 301 299 296 293 292 291 290 291 292 292 294 297 301 304 308 311 313 313 313 312 313 314 314 313 314 315 314 312 311 311
302 303 301 300 300 300 300 299 299 299 298 301 303 302 301 300 298 295 294 292 290 290 292 295 296 298 302 305 309 314 316 317 318 319 318 318 317 316 316 317 318 317 316 315
305 304 305 302 302 301 302 304 302 299 297 300 302 303 302 301 299 298 298 293 291 294 295 296 298 300 306 311 315 319 320 321 321 322 323 323 322 322 322 322 324 323 321 319
305 305 305 303 303 302 302 301 301 301 300 300 303 305 303 302 301 300 299 297 296 294 295 297 297 300 306 315 320 321 322 324 324 324 325 327 327 327 329 328 328 327 325 324
306 306 305 303 305 306 305 301 300 300 301 300 302 303 300 299 299 300 303 298 295 294 296 301 302 306 310 314 318 320 322 325 327 328 328 331 332 332 333 332 332 332 330 331
302 302 301 301 303 304 305 300 299 298 299 300 302 302 302 300 299 301 301 300 298 296 296 298 302 304 307 313 318 320 325 328 330 333 332 333 333 336 336 333 333 334 334 333
299 298 298 301 302 304 303 297 297 296 297 298 300 302 302 302 302 301 301 301 305 303 301 301 302 302 309 316 324 328 331 333 337 340 340 338 338 338 337 336 337 337 334 334
298 297 296 299 299 300 299 296 295 294 295 296 297 300 303 304 304 303 298 301 308 309 310 307 307 310 314 323 332 336 338 340 341 343 343 342 342 341 341 340 339 337 336 334
294 294 295 297 298 298 295 292 292 292 293 295 296 299 302 306 305 297 298 307 312 315 316 315 316 322 327 330 335 340 342 343 344 344 344 344 342 342 343 342 342 341 340 340
290 292 293 294 295 294 292 289 289 290 291 294 295 298 302 304 307 303 301 308 316 329 332 334 333 333 333 337 340 343 345 349 349 346 345 346 344 344 346 345 345 344 344 343
287 289 291 294 292 289 287 284 283 285 290 297 296 293 295 301 308 312 303 306 315 326 334 337 340 341 341 342 343 344 346 347 346 345 344 345 346 346 349 350 348 347 348 347
284 287 289 291 288 284 282 279 277 280 284 287 285 282 283 290 302 306 296 301 317 319 326 333 339 344 343 343 344 345 347 348 348 349 349 349 350 352 353 352 351 349 350 349
284 283 284 282 278 276 277 276 275 276 277 275 268 271 275 275 284 285 279 287 305 312 321 329 338 343 345 347 347 348 349 349 349 350 351 352 352 353 353 353 353 351 350 350
282 280 279 276 273 272 272 272 271 270 269 265 266 270 271 268 267 264 262 275 296 307 316 328 340 347 349 351 351 353 353 352 351 350 349 349 350 351 351 350 350 349 348 347
277 276 274 269 266 268 266 265 266 267 266 265 266 269 263 259 258 252 252 266 286 303 317 328 342 349 352 354 355 356 355 354 353 352 350 349 349 349 349 348 348 348 347 346
271 271 269 267 263 259 260 260 258 259 260 261 261 257 251 251 248 242 250 258 274 295 314 328 339 346 350 354 355 355 355 354 353 352 351 349 349 348 348 347 347 347 348 347
266 264 264 263 259 254 252 251 252 252 253 256 256 251 247 246 239 238 246 254 272 295 311 324 338 345 347 350 352 354 354 354 354 353 353 352 351 349 348 348 348 348 348 348
261 258 255 256 252 247 244 243 244 240 242 248 247 242 244 244 240 241 242 253 270 280 301 324 336 342 345 349 352 353 353 354 354 353 352 351 351 350 349 348 348 347 346 346
255 250 249 246 246 246 241 238 235 233 235 237 231 232 239 238 236 235 238 245 262 276 297 321 333 340 347 351 353 353 353 354 354 353 351 350 351 351 351 350 349 348 348 347
246 245 242 241 241 239 236 233 231 230 229 226 225 228 232 231 230 230 228 239 255 270 297 319 331 341 347 352 354 354 354 354 354 354 353 353 353 353 352 351 351 350 350 349
242 239 236 235 235 232 230 230 230 224 220 222 224 223 225 228 228 225 226 238 247 268 301 320 332 341 347 351 352 353 353 354 354 354 355 355 354 354 354 354 353 352 351 350
240 237 236 237 234 230 226 226 222 220 219 221 222 222 225 226 223 224 227 234 247 270 299 319 332 341 346 348 349 351 353 355 356 356 356 355 355 356 355 354 353 352 352 351
238 238 236 231 229 224 221 219 217 215 214 217 219 218 219 217 217 219 217 230 254 271 292 315 330 340 345 347 348 351 355 357 357 357 357 357 357 357 357 356 355 354 353 352
236 233 229 226 224 220 218 214 211 210 213 216 216 215 214 211 210 210 213 233 259 273 291 313 326 336 343 347 348 351 354 355 356 356 357 357 357 357 356 356 355 355 354 353
231 227 224 222 217 215 213 211 210 210 211 212 212 212 210 208 210 213 218 237 261 279 300 318 329 335 340 346 348 350 352 354 354 355 355 356 356 356 355 354 354 354 354 353
224 223 221 217 214 212 211 210 210 208 209 209 208 207 207 209 211 214 221 240 260 282 305 320 328 334 341 346 348 349 350 351 352 354 354 354 354 354 353 353 353 354 353 353
221 220 217 214 211 210 209 207 205 205 207 205 204 204 205 208 210 214 224 243 263 286 306 318 325 331 338 343 346 348 349 349 351 352 352 352 353 353 353 353 353 353 352 352
Height
5810 5808 5806 5805 5804 5802 5801 5799 5797 5796 5793 5791 5789 5787 5785 5783 5781 5779 5778 5777 5775 5774 5772 5771 5769 5767 5766 5763 5760 5756 5753 5750 5747 5743 5740 5737 5734 5730 5727 5724 5720 5717 5713 5710
5805 5803 5801 5800 5799 5797 5796 5794 5792 5790 5789 5786 5784 5782 5780 5777 5775 5774 5772 5771 5770 5769 5767 5766 5764 5763 5761 5758 5756 5752 5749 5746 5743 5739 5736 5733 5730 5727 5724 5720 5716 5712 5709 5705
5800 5799 5797 5795 5794 5792 5790 5788 5787 5785 5784 5781 5779 5777 5774 5772 5770 5769 5767 5766 5765 5764 5763 5762 5760 5759 5756 5754 5751 5749 5746 5743 5739 5736 5733 5730 5727 5724 5720 5716 5712 5708 5705 5701
5795 5795 5793 5793 5789 5787 5785 5783 5781 5779 5778 5776 5775 5773 5770 5768 5766 5764 5763 5762 5761 5760 5759 5758 5757 5755 5754 5751 5748 5746 5743 5740 5737 5734 5731 5728 5724 5721 5717 5714 5710 5706 5702 5698
5791 5789 5788 5786 5784 5782 5781 5779 5777 5775 5773 5772 5770 5769 5767 5764 5762 5761 5760 5759 5758 5757 5756 5755 5754 5753 5751 5749 5746 5743 5741 5738 5734 5731 5728 5725 5722 5718 5715 5711 5707 5703 5699 5696
5786 5784 5783 5782 5780 5777 5777 5774 5772 5770 5769 5767 5766 5765 5764 5762 5759 5758 5757 5756 5755 5754 5753 5752 5751 5750 5749 5747 5744 5741 5738 5736 5732 5729 5726 5723 5720 5716 5713 5709 5705 5701 5698 5694
5781 5779 5778 5777 5775 5773 5772 5771 5768 5766 5765 5764 5762 5761 5760 5758 5756 5755 5754 5754 5753 5751 5750 5750 5749 5748 5746 5745 5742 5739 5736 5734 5730 5727 5724 5721 5718 5714 5711 5707 5703 5699 5695 5691
5776 5774 5775 5771 5769 5769 5767 5765 5763 5762 5761 5760 5759 5758 5757 5755 5754 5753 5752 5751 5750 5750 5749 5748 5747 5746 5744 5743 5740 5737 5735 5732 5729 5726 5722 5719 5716 5713 5709 5705 5701 5697 5693 5689
5771 5771 5768 5766 5764 5763 5761 5760 5759 5758 5758 5757 5756 5755 5754 5753 5752 5751 5750 5750 5749 5748 5748 5747 5746 5744 5742 5741 5739 5736 5733 5730 5727 5724 5721 5718 5714 5711 5707 5703 5699 5694 5690 5686
5764 5764 5763 5761 5759 5758 5757 5756 5755 5755 5754 5754 5753 5752 5751 5751 5750 5749 5749 5748 5748 5747 5747 5745 5744 5743 5741 5739 5737 5734 5732 5729 5726 5723 5720 5716 5713 5709 5705 5701 5696 5692 5688 5684
5759 5758 5757 5756 5755 5754 5753 5752 5752 5752 5751 5751 5750 5750 5749 5749 5748 5748 5748 5747 5747 5746 5745 5744 5743 5742 5740 5738 5736 5733 5731 5728 5725 5722 5718 5715 5711 5707 5703 5699 5695 5690 5686 5682
5754 5753 5752 5752 5751 5750 5749 5749 5749 5749 5748 5748 5747 5747 5747 5747 5747 5746 5746 5746 5746 5745 5744 5743 5742 5741 5739 5737 5735 5732 5730 5727 5724 5720 5717 5713 5709 5706 5702 5698 5693 5689 5685 5680
5748 5748 5747 5747 5747 5746 5746 5746 5746 5745 5745 5745 5745 5745 5745 5745 5745 5745 5745 5745 5745 5744 5743 5742 5741 5739 5738 5736 5734 5731 5729 5726 5722 5719 5716 5712 5708 5704 5700 5696 5692 5687 5683 5678
5743 5743 5743 5743 5743 5742 5742 5742 5742 5742 5742 5742 5742 5742 5743 5743 5743 5743 5744 5743 5743 5742 5742 5741 5740 5738 5737 5735 5733 5730 5727 5724 5721 5718 5714 5711 5707 5703 5699 5694 5690 5685 5681 5676
5739 5738 5738 5738 5738 5738 5738 5739 5739 5739 5739 5739 5739 5740 5740 5741 5741 5741 5742 5742 5742 5741 5741 5740 5739 5738 5736 5734 5732 5729 5727 5723 5720 5717 5713 5709 5705 5701 5697 5693 5688 5683 5679 5673
5734 5734 5734 5734 5735 5735 5735 5735 5736 5736 5736 5737 5737 5737 5738 5738 5739 5740 5740 5740 5740 5740 5740 5739 5738 5737 5735 5733 5731 5729 5726 5722 5719 5715 5712 5708 5704 5699 5695 5690 5686 5681 5676 5671
5729 5730 5730 5731 5731 5732 5732 5732 5733 5733 5734 5734 5734 5735 5736 5736 5737 5738 5738 5739 5739 5739 5738 5738 5737 5736 5734 5732 5730 5727 5725 5721 5718 5714 5710 5706 5702 5698 5693 5688 5683 5679 5674 5668
5725 5725 5726 5727 5727 5728 5729 5730 5730 5731 5731 5732 5732 5733 5734 5735 5735 5736 5737 5737 5737 5737 5737 5737 5736 5735 5733 5731 5729 5726 5723 5720 5717 5713 5709 5705 5700 5696 5691 5686 5681 5676 5671 5665
5720 5721 5722 5723 5724 5724 5725 5726 5727 5728 5729 5730 5731 5732 5732 5733 5734 5735 5735 5736 5736 5736 5736 5736 5735 5734 5732 5730 5728 5725 5722 5719 5715 5712 5708 5703 5698 5693 5689 5684 5679 5673 5668 5663
5716 5717 5718 5719 5720 5721 5722 5724 5725 5726 5727 5728 5729 5730 5731 5732 5732 5733 5734 5735 5735 5735 5735 5734 5734 5733 5731 5729 5727 5724 5721 5718 5714 5710 5706 5701 5696 5692 5687 5681 5676 5671 5665 5660
5712 5713 5715 5716 5717 5718 5719 5721 5722 5724 5725 5726 5727 5728 5729 5730 5731 5732 5733 5734 5734 5734 5734 5733 5732 5731 5730 5728 5725 5723 5719 5716 5712 5708 5704 5699 5695 5690 5685 5680 5674 5669 5663 5658
5708 5709 5711 5712 5713 5715 5716 5718 5719 5721 5723 5724 5725 5727 5728 5729 5729 5731 5732 5733 5733 5733 5732 5732 5731 5730 5728 5726 5724 5721 5718 5715 5711 5707 5702 5698 5693 5688 5683 5678 5672 5667 5661 5655
5703 5705 5707 5708 5710 5712 5714 5715 5717 5719 5721 5722 5724 5725 5726 5727 5728 5730 5731 5731 5731 5731 5731 5731 5730 5728 5727 5725 5722 5719 5716 5713 5709 5705 5701 5696 5691 5686 5681 5676 5671 5665 5659 5653
5698 5700 5703 5705 5706 5708 5711 5713 5715 5717 5718 5720 5722 5723 5725 5726 5728 5729 5729 5730 5730 5730 5730 5729 5728 5727 5725 5723 5721 5718 5715 5712 5708 5704 5699 5694 5690 5685 5680 5675 5669 5663 5657 5651
5693 5696 5698 5700 5703 5705 5707 5710 5712 5714 5716 5718 5720 5722 5723 5725 5726 5727 5728 5729 5729 5729 5728 5728 5727 5725 5723 5721 5719 5716 5714 5710 5706 5702 5698 5693 5688 5684 5678 5673 5667 5661 5655 5649
5689 5692 5694 5696 5699 5701 5704 5706 5709 5711 5713 5715 5718 5720 5722 5723 5725 5726 5727 5727 5727 5727 5727 5726 5725 5723 5722 5720 5717 5715 5712 5709 5705 5701 5696 5692 5687 5682 5677 5671 5665 5659 5653 5647
5684 5687 5690 5693 5695 5698 5700 5703 5706 5708 5711 5713 5715 5717 5720 5722 5723 5724 5725 5726 5726 5725 5725 5724 5723 5721 5720 5718 5716 5713 5710 5707 5703 5699 5694 5690 5685 5680 5675 5669 5664 5658 5652 5645